KD4SN Weather Reports


time (UTC)temp
C
wind
direction
speed
KPH
gust
KPH
rain 1hr
cm
rain 24hr
cm
rain mn
cm
humidity
%
barometer
mb
20260505125013 16 74 0.0 0.0 0.00 0.00 0.00 61 1012.1
20260505124527 16 96 0.0 0.0 0.00 0.00 0.00 63 1012.2
20260505124016 16 223 0.0 0.0 0.00 0.00 0.00 63 1012.1
20260505123516 16 223 0.0 0.0 0.00 0.00 0.00 63 1012.1
20260505123045 16 223 0.0 0.0 0.00 0.00 0.00 64 1012.1
20260505122513 15 223 0.0 0.0 0.00 0.00 0.00 63 1012.1
20260505122013 15 209 0.0 0.0 0.00 0.00 0.00 64 1012.1
20260505121533 15 182 0.0 0.0 0.00 0.00 0.00 64 1012.0
20260505121008 15 119 0.0 0.0 0.00 0.00 0.00 64 1011.8
20260505120509 15 66 0.0 0.0 0.00 0.00 0.00 65 1011.7
20260505120036 15 53 0.0 0.0 0.00 0.00 0.00 66 1011.7
20260505115512 15 68 0.0 0.0 0.00 0.00 0.00 66 1011.7
20260505115008 15 111 0.0 0.0 0.00 0.00 0.00 65 1011.8
20260505114536 15 111 0.0 0.0 0.00 0.00 0.00 66 1011.7
20260505114010 15 111 0.0 0.0 0.00 0.00 0.00 66 1011.7
20260505113507 15 111 0.0 0.0 0.00 0.00 0.00 66 1011.8
20260505113026 15 111 0.0 0.0 0.00 0.00 0.00 66 1011.8
20260505112511 15 111 0.0 0.0 0.00 0.00 0.00 65 1011.8
20260505112010 15 111 0.0 0.0 0.00 0.00 0.00 65 1011.7
20260505111528 15 111 0.0 0.0 0.00 0.00 0.00 64 1011.7
20260505111009 15 111 0.0 0.0 0.00 0.00 0.00 64 1011.6
20260505110511 15 111 0.0 0.0 0.00 0.00 0.00 64 1011.5
20260505102008 15 123 0.0 0.0 0.00 0.10 0.00 62 1010.6
20260505101518 15 123 0.0 0.0 0.00 0.10 0.00 62 1010.6
20260505101005 15 123 0.0 0.0 0.00 0.10 0.00 61 1010.6
20260505100509 15 123 0.0 0.0 0.00 0.13 0.00 61 1010.6
20260505100025 15 107 0.0 0.0 0.00 0.15 0.00 61 1010.5
20260505095509 15 107 0.0 0.0 0.00 0.15 0.00 61 1010.4
20260505095001 15 107 0.0 0.0 0.00 0.15 0.00 60 1010.4
20260505094506 15 99 0.0 0.0 0.00 0.15 0.00 60 1010.2
20260505094004 15 99 0.0 0.0 0.00 0.15 0.00 60 1010.2
20260505093506 16 99 0.0 0.0 0.00 0.15 0.00 60 1010.1
20260505093006 16 95 0.0 0.0 0.00 0.15 0.00 60 1010.1
20260505092508 16 92 0.0 0.0 0.00 0.15 0.00 60 1010.2
20260505092005 16 92 0.0 3.2 0.00 0.15 0.00 59 1010.3
20260505091512 16 107 0.0 3.2 0.00 0.15 0.00 59 1010.3
20260505091006 16 107 0.0 3.2 0.00 0.15 0.00 59 1010.1
20260505090505 16 87 0.0 4.8 0.00 0.15 0.00 59 1010.1
20260505090036 16 78 0.0 6.4 0.00 0.15 0.00 58 1010.1
20260505085508 16 103 0.0 6.4 0.00 0.15 0.00 59 1010.0
20260505085009 16 74 0.0 3.2 0.00 0.15 0.00 58 1010.1
20260505084523 16 92 0.0 3.2 0.00 0.15 0.00 58 1010.0
20260505084012 16 92 0.0 3.2 0.00 0.15 0.00 58 1010.0
20260505083502 16 92 1.6 4.8 0.00 0.15 0.00 57 1009.9
20260505083009 16 84 0.0 6.4 0.00 0.15 0.00 58 1009.8
20260505082502 16 99 1.6 6.4 0.00 0.15 0.00 57 1009.7
20260505082004 16 71 1.6 6.4 0.00 0.15 0.00 58 1009.6
20260505081508 16 90 1.6 6.4 0.00 0.15 0.00 57 1009.6
20260505081005 16 99 1.6 6.4 0.00 0.15 0.00 57 1009.6
20260505080505 16 93 1.6 6.4 0.00 0.15 0.00 57 1009.8
20260505080020 16 89 0.0 4.8 0.00 0.15 0.00 57 1009.7
20260505075506 16 29 1.6 4.8 0.00 0.15 0.00 57 1009.7
20260505075006 16 101 0.0 3.2 0.00 0.15 0.00 57 1009.6
20260505074521 17 82 0.0 4.8 0.00 0.15 0.00 57 1009.6
20260505074009 17 63 0.0 4.8 0.00 0.15 0.00 57 1009.6
20260505073507 17 96 0.0 4.8 0.00 0.15 0.00 56 1009.6
20260505073022 17 96 0.0 4.8 0.00 0.15 0.00 56 1009.6
20260505072507 17 84 1.6 4.8 0.00 0.15 0.00 56 1009.5
20260505072003 17 113 0.0 4.8 0.00 0.15 0.00 56 1009.6
20260505071506 17 92 0.0 4.8 0.00 0.15 0.00 55 1009.6
20260505071006 17 81 0.0 4.8 0.00 0.15 0.00 55 1009.6
20260505070505 17 46 1.6 4.8 0.00 0.15 0.00 55 1009.6
20260505070018 17 55 0.0 4.8 0.00 0.15 0.00 55 1009.6
20260505065508 17 61 0.0 6.4 0.00 0.15 0.00 55 1009.6
20260505065005 17 94 1.6 6.4 0.00 0.15 0.00 55 1009.7
20260505064517 17 72 0.0 6.4 0.00 0.15 0.00 54 1009.7
20260505064012 17 65 0.0 6.4 0.00 0.15 0.00 54 1009.6
20260505063511 17 102 1.6 4.8 0.00 0.15 0.00 54 1009.6
20260505063023 17 111 0.0 4.8 0.00 0.15 0.00 54 1009.7
20260505062507 17 86 1.6 4.8 0.00 0.15 0.00 54 1009.7
20260505062009 17 90 1.6 4.8 0.00 0.15 0.00 54 1009.7
20260505061526 17 103 0.0 6.4 0.00 0.15 0.00 54 1009.7
20260505061012 17 82 1.6 6.4 0.00 0.15 0.00 54 1009.7
20260505060511 17 94 0.0 4.8 0.00 0.15 0.00 54 1009.7
20260505060016 17 62 0.0 4.8 0.00 0.15 0.00 54 1009.7
20260505055504 17 88 1.6 4.8 0.00 0.15 0.00 54 1009.8
20260505055009 18 83 1.6 4.8 0.00 0.15 0.00 54 1009.8
20260505054517 18 94 1.6 4.8 0.00 0.15 0.00 54 1009.9
20260505054011 18 86 0.0 4.8 0.00 0.15 0.00 54 1009.9
20260505053511 18 67 0.0 6.4 0.00 0.15 0.00 53 1010.0
20260505053021 18 104 1.6 6.4 0.00 0.15 0.00 53 1010.0
20260505052510 18 94 0.0 4.8 0.00 0.15 0.00 54 1010.0
20260505052009 18 86 0.0 4.8 0.00 0.15 0.00 54 1010.1
20260505051524 18 61 1.6 4.8 0.00 0.15 0.00 53 1010.1
20260505051007 18 86 0.0 3.2 0.00 0.15 0.00 54 1010.1
20260505050511 18 97 0.0 4.8 0.00 0.15 0.00 54 1010.1
20260505041537 18 104 0.0 0.0 0.00 0.15 0.00 53 1010.0
20260505041007 18 104 0.0 0.0 0.00 0.15 0.00 52 1009.9
20260505040512 18 90 0.0 0.0 0.00 0.15 0.00 52 1009.9
20260505040027 18 71 0.0 0.0 0.00 0.15 0.00 52 1009.8
20260505035509 18 98 0.0 1.6 0.00 0.15 0.15 52 1009.7
20260505035015 18 98 0.0 3.2 0.00 0.15 0.15 51 1009.6
20260505034527 18 109 0.0 3.2 0.00 0.15 0.15 51 1009.6
20260505034013 19 101 0.0 4.8 0.00 0.15 0.15 51 1009.5
20260505033510 19 101 1.6 4.8 0.00 0.15 0.15 50 1009.5
20260505033014 19 93 0.0 3.2 0.00 0.15 0.15 50 1009.5
20260505032507 19 98 0.0 4.8 0.00 0.15 0.15 50 1009.4
20260505032010 19 90 0.0 4.8 0.00 0.15 0.15 50 1009.3
20260505031519 19 73 0.0 6.4 0.00 0.15 0.15 50 1009.3
20260505031010 19 84 0.0 6.4 0.00 0.15 0.15 49 1009.3
20260505030507 19 71 1.6 4.8 0.00 0.15 0.15 50 1009.3
20260505030024 19 88 0.0 3.2 0.00 0.15 0.15 50 1009.3
20260505025507 19 63 0.0 0.0 0.00 0.15 0.15 50 1009.1
20260505025007 19 80 0.0 3.2 0.00 0.15 0.15 50 1009.0
20260505024527 19 86 0.0 3.2 0.00 0.15 0.15 50 1008.9
20260505024009 19 85 0.0 3.2 0.00 0.15 0.15 50 1008.8
20260505023508 19 96 1.6 3.2 0.00 0.15 0.15 50 1008.7
20260505023039 19 54 0.0 3.2 0.00 0.15 0.15 51 1008.6
20260505022508 19 95 0.0 1.6 0.00 0.15 0.15 51 1008.7
20260505022016 19 109 0.0 3.2 0.00 0.15 0.15 51 1008.7
20260505021516 19 88 0.0 3.2 0.00 0.15 0.15 51 1008.7
20260505021008 20 104 0.0 3.2 0.00 0.15 0.15 51 1008.6
20260505020506 20 71 0.0 3.2 0.00 0.15 0.15 51 1008.6
20260505020021 20 49 0.0 3.2 0.00 0.15 0.15 51 1008.5
20260505015512 20 78 0.0 4.8 0.00 0.15 0.15 51 1008.5
20260505015009 20 57 0.0 4.8 0.00 0.15 0.15 50 1008.4
20260505014506 20 66 0.0 1.6 0.00 0.15 0.15 50 1008.3
20260505014003 20 54 0.0 4.8 0.00 0.15 0.15 49 1008.3
20260505013502 20 56 0.0 4.8 0.00 0.15 0.15 49 1008.3
20260505013011 20 47 0.0 4.8 0.00 0.15 0.15 49 1008.2
20260505012507 20 63 0.0 4.8 0.00 0.15 0.15 48 1008.2
20260505012008 20 63 0.0 6.4 0.00 0.15 0.15 48 1008.3
20260505011521 20 58 0.0 6.4 0.00 0.15 0.15 47 1008.2
20260505011008 21 69 0.0 4.8 0.00 0.15 0.15 47 1008.2
20260505010505 21 57 1.6 4.8 0.00 0.15 0.15 47 1008.1
20260505010019 21 50 0.0 4.8 0.00 0.15 0.15 46 1008.0
20260505005509 21 55 0.0 3.2 0.00 0.15 0.15 46 1008.0
20260505005009 21 84 0.0 3.2 0.00 0.15 0.15 46 1008.0
20260505004503 21 67 0.0 3.2 0.00 0.15 0.15 46 1008.0
20260505004003 21 76 0.0 4.8 0.00 0.15 0.15 46 1008.0
20260505003508 21 95 0.0 4.8 0.00 0.15 0.15 45 1008.0
20260505003007 21 47 0.0 0.0 0.00 0.15 0.15 45 1008.1
20260505002505 21 74 0.0 0.0 0.00 0.15 0.15 45 1008.2
20260505002007 21 105 0.0 1.6 0.00 0.15 0.15 45 1008.2
20260505001510 22 105 0.0 3.2 0.00 0.15 0.15 44 1008.2
20260505001010 22 102 0.0 3.2 0.00 0.15 0.15 43 1008.4
20260505000503 22 80 0.0 3.2 0.00 0.15 0.15 43 1008.5
20260505000027 22 105 0.0 4.8 0.00 0.15 0.15 43 1008.5
20260504235506 22 60 0.0 4.8 0.00 0.15 0.15 42 1008.6
20260504235011 22 111 0.0 3.2 0.00 0.15 0.15 42 1008.6
20260504234523 22 101 0.0 4.8 0.00 0.15 0.15 43 1008.7
20260504234009 22 103 1.6 4.8 0.00 0.15 0.15 42 1008.8
20260504233511 22 105 1.6 4.8 0.00 0.15 0.15 43 1008.9
20260504233027 23 96 0.0 4.8 0.00 0.15 0.15 43 1009.1
20260504232503 23 117 0.0 4.8 0.00 0.15 0.15 42 1009.1
20260504232002 23 95 0.0 6.4 0.00 0.15 0.15 42 1009.1
20260504231508 23 106 0.0 6.4 0.00 0.15 0.15 41 1009.2
20260504231006 23 136 0.0 6.4 0.00 0.15 0.15 40 1009.1
20260504230508 23 103 1.6 8.0 0.00 0.15 0.15 40 1009.2
20260504230017 23 86 1.6 8.0 0.00 0.15 0.15 40 1009.3
20260504225510 23 115 1.6 6.4 0.00 0.15 0.15 38 1009.4
20260504225007 23 51 1.6 12.9 0.00 0.15 0.15 39 1009.5
20260504224517 24 98 1.6 12.9 0.00 0.15 0.15 38 1009.5
20260504224004 24 107 1.6 8.0 0.00 0.15 0.15 38 1009.5
20260504223503 24 111 1.6 8.0 0.00 0.15 0.15 37 1009.5
20260504223006 24 106 0.0 9.7 0.00 0.15 0.15 39 1009.4
20260504222505 24 102 3.2 9.7 0.00 0.15 0.15 38 1009.5
20260504222007 24 86 1.6 11.3 0.00 0.15 0.15 39 1009.5
20260504221511 24 151 1.6 11.3 0.00 0.15 0.15 39 1009.5
20260504221003 24 121 1.6 9.7 0.00 0.15 0.15 39 1009.5
20260504220507 24 96 1.6 9.7 0.00 0.15 0.15 38 1009.5
20260504220011 24 90 1.6 6.4 0.00 0.15 0.15 39 1009.6
20260504215507 24 88 1.6 4.8 0.00 0.15 0.15 39 1009.5
20260504215009 24 105 1.6 9.7 0.00 0.15 0.15 39 1009.5
20260504214517 24 95 3.2 11.3 0.00 0.15 0.15 37 1009.5
20260504214005 24 69 1.6 11.3 0.00 0.15 0.15 39 1009.5
20260504213507 24 75 3.2 11.3 0.00 0.15 0.15 38 1009.5
20260504213042 24 99 3.2 9.7 0.00 0.15 0.15 39 1009.5
20260504212504 24 117 3.2 8.0 0.00 0.15 0.15 39 1009.5
20260504212004 24 106 1.6 9.7 0.00 0.15 0.15 38 1009.5
20260504211511 24 118 3.2 11.3 0.00 0.15 0.15 39 1009.5
20260504211007 24 148 3.2 17.7 0.00 0.15 0.15 39 1009.5
20260504210503 24 106 3.2 17.7 0.00 0.15 0.15 39 1009.5
20260504210011 25 105 3.2 11.3 0.00 0.15 0.15 37 1009.5
20260504205507 25 19 3.2 9.7 0.00 0.15 0.15 39 1009.5
20260504205007 25 60 1.6 14.5 0.00 0.15 0.15 39 1009.5
20260504204512 25 136 3.2 14.5 0.00 0.15 0.15 37 1009.6
20260504204009 25 95 3.2 11.3 0.00 0.15 0.15 38 1009.6
20260504203511 25 106 3.2 11.3 0.00 0.15 0.15 38 1009.7
20260504203020 25 66 1.6 11.3 0.00 0.15 0.15 39 1009.7
20260504202507 25 102 4.8 11.3 0.00 0.15 0.15 37 1009.8
20260504202009 25 113 1.6 11.3 0.00 0.15 0.15 36 1009.8
20260504201526 25 43 4.8 14.5 0.00 0.15 0.15 36 1009.8
20260504201002 25 89 3.2 14.5 0.00 0.15 0.15 38 1009.8
20260504200505 25 87 1.6 11.3 0.00 0.15 0.15 39 1010.0
20260504200006 25 121 3.2 11.3 0.00 0.15 0.15 40 1010.2
20260504195506 25 122 4.8 9.7 0.00 0.15 0.15 39 1010.3
20260504195003 25 82 1.6 11.3 0.00 0.15 0.15 39 1010.4
20260504194514 25 102 3.2 12.9 0.00 0.15 0.15 39 1010.5
20260504194003 25 73 3.2 12.9 0.00 0.15 0.15 40 1010.6
20260504193509 25 78 1.6 11.3 0.00 0.15 0.15 41 1010.6
20260504193016 24 88 3.2 11.3 0.00 0.15 0.15 41 1010.6
20260504192509 24 79 3.2 12.9 0.00 0.15 0.15 41 1010.7
20260504192010 24 120 1.6 12.9 0.00 0.15 0.15 41 1010.7
20260504191520 24 150 3.2 9.7 0.00 0.15 0.15 42 1010.8
20260504191012 23 138 3.2 9.7 0.00 0.15 0.15 43 1010.8
20260504190507 23 96 3.2 9.7 0.00 0.15 0.15 42 1010.9
20260504190024 23 111 4.8 9.7 0.00 0.15 0.15 45 1010.9
20260504185506 23 93 1.6 11.3 0.00 0.15 0.15 45 1010.9
20260504185002 23 87 4.8 11.3 0.00 0.15 0.15 44 1010.8
20260504184511 23 99 1.6 9.7 0.00 0.15 0.15 45 1010.8
20260504184007 23 81 3.2 14.5 0.00 0.15 0.15 44 1010.9
20260504183508 22 89 3.2 14.5 0.00 0.15 0.15 47 1010.8
20260504183020 22 50 1.6 11.3 0.00 0.15 0.15 48 1010.8
20260504182509 22 61 3.2 11.3 0.00 0.15 0.15 49 1010.8
20260504182008 22 72 3.2 11.3 0.00 0.15 0.15 46 1010.9
20260504181520 22 88 1.6 11.3 0.00 0.15 0.15 48 1010.9
20260504181008 22 111 1.6 9.7 0.00 0.15 0.15 46 1010.9
20260504180507 22 77 3.2 9.7 0.00 0.15 0.15 48 1010.8
20260504180024 21 114 1.6 9.7 0.00 0.15 0.15 48 1010.8
20260504175507 21 63 3.2 12.9 0.00 0.15 0.15 48 1010.9
20260504175011 21 80 4.8 14.5 0.00 0.15 0.15 48 1010.8
20260504174526 21 67 3.2 14.5 0.00 0.15 0.15 49 1010.8
20260504174004 21 107 3.2 11.3 0.00 0.15 0.15 48 1010.8
20260504173510 21 107 3.2 12.9 0.00 0.15 0.15 48 1010.8
20260504173023 21 71 3.2 12.9 0.00 0.15 0.15 49 1010.9
20260504172507 21 50 3.2 14.5 0.00 0.15 0.15 48 1010.8
20260504172008 21 91 3.2 16.1 0.00 0.15 0.15 49 1010.9
20260504171523 21 37 3.2 19.3 0.00 0.15 0.15 47 1010.9
20260504171012 20 57 1.6 19.3 0.00 0.15 0.15 50 1011.0
20260504170506 20 55 4.8 17.7 0.00 0.15 0.15 49 1011.0
20260504151015 15 55 1.6 16.1 0.00 0.15 0.15 64 1012.1
20260504150504 15 92 1.6 17.7 0.00 0.15 0.15 67 1012.1
20260504141014 11 63 0.0 9.7 0.00 0.15 0.15 80 1013.0
20260504140510 11 61 0.0 0.0 0.00 0.15 0.15 82 1013.2